COSMOS 1275 DEB

Satellite information

Favourite Embed

Satellite Type and Status

DEBRISIN ORBIT

Key statistics

Satellite COSMOS 1275 DEB at a glance.

Uptime

16104

Days in orbit

Revolutions

≈ 14.4

Per day

Orbit

LEO

Low Earth Orbit

Inclination

82.9

Latest

Satellite identification and parameters

Extended collection of information and parameters for COSMOS 1275 DEB.

Object identification

Identified? True

Debris? True

Object name: COSMOS 1275 DEB

International designator: 1981-053LM

Object number (NORAD): 17642

Object ID (CCSDS): 17642

Country: COMMONWEALTH OF INDEPENDENT STATES (CIS)

Current information (Y/N): Y

RCS size: SMALL

Orbital parameters

Period: 100.007 minutes

Inclination: 82.8619 deg

SMA: 7136.973 km

Apoapsis: 783.22 km

Periapsis: 734.456 km

RAAN: 40.1453 deg

Eccentricy: 0.0034163

Argument of periapsis: 103.7962 deg

Mean anomaly: 256.7036 deg

Mean motion: 14.39897762 rev/day

Mean motion (dot): 0.00002829 rev/day2

B* drag term: 0.00088874 1/REarth

Two-line elements (TLE)

Creation date: July 6, 2025, 10:46 p.m.

Reference frame: TEME

Reference center: EARTH

Epoch: July 6, 2025, 8:52 p.m. UTC

TLE line 0: 0 COSMOS 1275 DEB

TLE line 1: 1 17642U 81053LM 25187.86974903 .00002829 00000-0 88874-3 0 9995

TLE line 2: 2 17642 82.8619 40.1453 0034163 103.7962 256.7036 14.39897762 87255

Live tracking on map

Real-time ground track for satellite COSMOS 1275 DEB.

In-orbit conjunctions

A list of the most updated potential collisions computed for object COSMOS 1275 DEB.

Target Orbit TCA Probability of collision Miss distance Type
SL-8 R/B LEO 2025-03-17 19:11:08 0.000212475 803.0 (m) ROCKET BODY
NOAA 16 DEB SSO 2024-11-13 11:30:22 0.000280146 163.0 (m) DEBRIS
SL-8 R/B LEO 2024-11-02 21:22:15 0.0002254273 520.0 (m) ROCKET BODY
THOR BURNER 2 R/B SSO 2024-10-25 00:43:38 0.0001042561 314.0 (m) ROCKET BODY

Associated space launch

Navigation satellite providing location information for the Tsiklon-B navigation system

COSMOS 1275 DEB was lifted into orbit during the mission ‘Kosmos-3M | Parus 27’, on board a Kosmos-3M space rocket.

The launch took place on June 4, 1981, 3:41 p.m. from 132/2.

For more information about the launch, click the button.

Launch to space Kosmos-3M | Parus 27
Kosmos-3M | Parus 27

Agency: N/A

Status: Launch Successful

Launch date: June 4, 1981, 3:41 p.m. UTC

Rocket: Kosmos-3M

Launch pad: 132/2

Location: Plesetsk Cosmodrome, Russian Federation

...

Latest news about this satellite

There are no fresh news available about this satellite. Check back as we update our databases every day.


Newsletter sign-up

Weekly statistics, charts and insights to help you stay on top of the space industry.